This is the latest recevied weather packets stored in our database for station/object N0NB. If no packets are shown the sender has not sent any weather packets the latest 1 day(s).
| Time | Temp. | Humidity | Pressure | Rain* | Wind** | Luminosity | Snow |
|---|---|---|---|---|---|---|---|
| 1778083216 | 12.22° C | 39% | 1019 hPa | 0 mm | - | 746 W/m² | - |
| 1778082016 | 11.67° C | 46% | 1018.9 hPa | 0 mm | - | 561 W/m² | - |
| 1778081416 | 11.11° C | 48% | 1019 hPa | 0 mm | - | 351 W/m² | - |
| 1778080816 | 10.56° C | 45% | 1018.9 hPa | 0 mm | - | 410 W/m² | - |
| 1778079616 | 10° C | 46% | 1018.7 hPa | 0 mm | - | 229 W/m² | - |
| 1778079016 | 10° C | 47% | 1018.5 hPa | 0 mm | - | 231 W/m² | - |
| 1778078416 | 10° C | 49% | 1018.5 hPa | 0 mm | - | 204 W/m² | - |
| 1778077816 | 9.44° C | 49% | 1018.5 hPa | 0 mm | - | 208 W/m² | - |
| 1778077216 | 9.44° C | 53% | 1018.4 hPa | 0 mm | - | 166 W/m² | - |
| 1778076616 | 9.44° C | 50% | 1018.4 hPa | 0 mm | - | 147 W/m² | - |
| 1778076016 | 9.44° C | 52% | 1018.5 hPa | 0 mm | - | 166 W/m² | - |
| 1778075416 | 9.44° C | 54% | 1018.6 hPa | 0 mm | - | 226 W/m² | - |
| 1778074816 | 9.44° C | 52% | 1018.4 hPa | 0 mm | - | 251 W/m² | - |
| 1778074216 | 8.33° C | 59% | 1018.2 hPa | 0 mm | - | 207 W/m² | - |
| 1778073616 | 7.78° C | 59% | 1018 hPa | 0 mm | - | 137 W/m² | - |
| 1778070616 | 6.67° C | 67% | 1016.9 hPa | 0 mm | - | 41 W/m² | - |
| 1778070016 | 6.67° C | 70% | 1016.9 hPa | 0 mm | - | 50 W/m² | - |
| 1778068816 | 6.11° C | 69% | 1016.6 hPa | 0 mm | - | 27 W/m² | - |
| 1778068216 | 6.11° C | 69% | 1016.2 hPa | 0 mm | - | 23 W/m² | - |
| 1778058017 | 7.78° C | 68% | 1015.3 hPa | 0 mm | - | 0 W/m² | - |
| 1778056817 | 8.33° C | 61% | 1015.1 hPa | 0 mm | - | 0 W/m² | - |
| 1778056217 | 8.89° C | 60% | 1014.7 hPa | 0 mm | - | 0 W/m² | - |
| 1778054417 | 7.78° C | 64% | 1014.9 hPa | 0 mm | - | 0 W/m² | - |
| 1778053817 | 8.33° C | 70% | 1014.9 hPa | 0 mm | - | 0 W/m² | - |
| 1778053217 | 8.33° C | 64% | 1014.8 hPa | 0 mm | - | 0 W/m² | - |
* Rain latest hour (hover to see other rain measurements)
** Current wind speed in m/s (hover to see current wind gust speed)